Time,TemperatureF,DewpointF,PressureIn,WindDirection,WindDirectionDegrees,WindSpeedMPH,WindSpeedGustMPH,Humidity,HourlyPrecipIn,Conditions,Clouds,dailyrainin,SolarRadiationWatts/m^2,SoftwareType,DateUTC
2013-09-19 00:00:00,50.0,50.0,-100.00,NNE,31,1.0,2.0,100,-99.99,,,0.00,0.000000,,2013-09-19 07:00:00,
2013-09-19 00:42:00,50.0,50.0,-100.00,NNE,31,1.0,2.0,100,-99.99,,,0.00,0.000000,,2013-09-19 07:42:00,
2013-09-19 00:52:00,50.0,50.0,-100.00,NNE,31,1.0,2.0,100,-99.99,,,0.00,0.000000,,2013-09-19 07:52:00,
2013-09-19 01:00:00,52.0,52.0,-100.00,NNE,30,1.0,2.0,100,-99.99,,,0.00,0.000000,,2013-09-19 08:00:00,
2013-09-19 01:42:00,52.0,52.0,-100.00,NNE,30,1.0,2.0,100,-99.99,,,0.00,0.000000,,2013-09-19 08:42:00,
2013-09-19 01:52:00,52.0,52.0,-100.00,NNE,30,1.0,2.0,100,-99.99,,,0.00,0.000000,,2013-09-19 08:52:00,
2013-09-19 02:00:00,51.0,51.0,-100.00,North,350,2.0,3.0,100,-99.99,,,0.00,0.000000,,2013-09-19 09:00:00,
2013-09-19 02:42:00,51.0,51.0,-100.00,North,350,2.0,3.0,100,-99.99,,,0.00,0.000000,,2013-09-19 09:42:00,
2013-09-19 02:53:00,51.0,51.0,-100.00,North,350,2.0,3.0,100,-99.99,,,0.00,0.000000,,2013-09-19 09:53:00,
2013-09-19 03:00:00,49.0,49.0,-100.00,North,359,1.0,2.0,100,-99.99,,,0.00,0.000000,,2013-09-19 10:00:00,
2013-09-19 03:43:00,49.0,49.0,-100.00,North,359,1.0,2.0,100,-99.99,,,0.00,0.000000,,2013-09-19 10:43:00,
2013-09-19 03:52:00,49.0,49.0,-100.00,North,359,1.0,2.0,100,-99.99,,,0.00,0.000000,,2013-09-19 10:52:00,
2013-09-19 04:00:00,47.0,47.0,-100.00,South,190,0.0,2.0,100,-99.99,,,0.00,0.000000,,2013-09-19 11:00:00,
2013-09-19 04:42:00,47.0,47.0,-100.00,South,190,0.0,2.0,100,-99.99,,,0.00,0.000000,,2013-09-19 11:42:00,
2013-09-19 04:52:00,47.0,47.0,-100.00,South,190,0.0,2.0,100,-99.99,,,0.00,0.000000,,2013-09-19 11:52:00,
2013-09-19 05:00:00,46.0,46.0,-100.00,East,95,1.0,4.0,100,-99.99,,,0.00,0.000000,,2013-09-19 12:00:00,
2013-09-19 05:43:00,46.0,46.0,-100.00,East,95,1.0,4.0,100,-99.99,,,0.00,0.000000,,2013-09-19 12:43:00,
2013-09-19 05:52:00,46.0,46.0,-100.00,East,95,1.0,4.0,100,-99.99,,,0.00,0.000000,,2013-09-19 12:52:00,
2013-09-19 06:00:00,46.0,46.0,-100.00,East,92,0.0,0.0,100,-99.99,,,0.00,0.000000,,2013-09-19 13:00:00,
2013-09-19 06:42:00,46.0,46.0,-100.00,East,92,0.0,0.0,100,-99.99,,,0.00,0.000000,,2013-09-19 13:42:00,
2013-09-19 06:52:00,46.0,46.0,-100.00,East,92,0.0,0.0,100,-99.99,,,0.00,0.000000,,2013-09-19 13:52:00,
2013-09-19 07:00:00,45.0,45.0,-100.00,East,80,0.0,2.0,100,-99.99,,,0.00,1.740000,,2013-09-19 14:00:00,
2013-09-19 07:52:00,45.0,45.0,-100.00,East,80,0.0,2.0,100,-99.99,,,0.00,1.740000,,2013-09-19 14:52:00,
2013-09-19 08:00:00,49.0,49.0,-100.00,East,91,0.0,0.0,100,-99.99,,,0.00,129.119995,,2013-09-19 15:00:00,
2013-09-19 08:54:00,49.0,49.0,-100.00,East,91,0.0,0.0,100,-99.99,,,0.00,129.119995,,2013-09-19 15:54:00,
2013-09-19 09:00:00,56.0,56.0,-100.00,North,1,0.0,2.0,100,-99.99,,,0.00,301.709991,,2013-09-19 16:00:00,
2013-09-19 09:42:00,56.0,56.0,-100.00,North,1,0.0,2.0,100,-99.99,,,0.00,301.709991,,2013-09-19 16:42:00,
2013-09-19 09:52:00,56.0,56.0,-100.00,North,1,0.0,2.0,100,-99.99,,,0.00,301.709991,,2013-09-19 16:52:00,
2013-09-19 10:00:00,60.0,59.0,-100.00,WNW,294,2.0,5.0,98,-99.99,,,0.00,480.339996,,2013-09-19 17:00:00,
2013-09-19 10:42:00,60.0,59.0,-100.00,WNW,294,2.0,5.0,98,-99.99,,,0.00,480.339996,,2013-09-19 17:42:00,
2013-09-19 10:53:00,60.0,59.0,-100.00,WNW,294,2.0,5.0,98,-99.99,,,0.00,480.339996,,2013-09-19 17:53:00,
2013-09-19 11:00:00,59.0,55.0,-100.00,WSW,257,3.0,9.0,85,-99.99,,,0.00,637.820007,,2013-09-19 18:00:00,
2013-09-19 11:42:00,59.0,55.0,-100.00,WSW,257,3.0,9.0,85,-99.99,,,0.00,637.820007,,2013-09-19 18:42:00,
2013-09-19 11:52:00,59.0,55.0,-100.00,WSW,257,3.0,9.0,85,-99.99,,,0.00,637.820007,,2013-09-19 18:52:00,
2013-09-19 12:00:00,62.0,57.0,-100.00,SW,227,4.0,12.0,82,-99.99,,,0.00,747.880005,,2013-09-19 19:00:00,
2013-09-19 12:42:00,62.0,57.0,-100.00,SW,227,4.0,12.0,82,-99.99,,,0.00,747.880005,,2013-09-19 19:42:00,
2013-09-19 12:52:00,62.0,57.0,-100.00,SW,227,4.0,12.0,82,-99.99,,,0.00,747.880005,,2013-09-19 19:52:00,
2013-09-19 13:00:00,59.0,55.0,-100.00,WSW,246,4.0,10.0,84,-99.99,,,0.00,786.809998,,2013-09-19 20:00:00,
2013-09-19 13:42:00,59.0,55.0,-100.00,WSW,246,4.0,10.0,84,-99.99,,,0.00,786.809998,,2013-09-19 20:42:00,
2013-09-19 13:52:00,59.0,55.0,-100.00,WSW,246,4.0,10.0,84,-99.99,,,0.00,786.809998,,2013-09-19 20:52:00,
2013-09-19 14:00:00,62.0,60.0,-100.00,SW,226,4.0,8.0,93,-99.99,,,0.00,727.539978,,2013-09-19 21:00:00,
2013-09-19 14:44:00,62.0,60.0,-100.00,SW,226,4.0,8.0,93,-99.99,,,0.00,727.539978,,2013-09-19 21:44:00,
2013-09-19 14:55:00,62.0,60.0,-100.00,SW,226,4.0,8.0,93,-99.99,,,0.00,727.539978,,2013-09-19 21:55:00,
2013-09-19 15:00:00,63.0,62.0,-100.00,WSW,255,3.0,7.0,95,-99.99,,,0.00,755.549988,,2013-09-19 22:00:00,
2013-09-19 15:42:00,63.0,62.0,-100.00,WSW,255,3.0,7.0,95,-99.99,,,0.00,755.549988,,2013-09-19 22:42:00,
2013-09-19 15:53:00,63.0,62.0,-100.00,WSW,255,3.0,7.0,95,-99.99,,,0.00,755.549988,,2013-09-19 22:53:00,
2013-09-19 16:00:00,65.0,61.0,-100.00,SW,227,3.0,7.0,88,-99.99,,,0.00,610.619995,,2013-09-19 23:00:00,
2013-09-19 16:42:00,65.0,61.0,-100.00,SW,227,3.0,7.0,88,-99.99,,,0.00,610.619995,,2013-09-19 23:42:00,
2013-09-19 16:53:00,65.0,61.0,-100.00,SW,227,3.0,7.0,88,-99.99,,,0.00,610.619995,,2013-09-19 23:53:00,
2013-09-19 17:00:00,66.0,56.0,-100.00,SSW,204,2.0,5.0,70,-99.99,,,0.00,442.799988,,2013-09-20 00:00:00,
2013-09-19 17:52:00,66.0,56.0,-100.00,SSW,204,2.0,5.0,70,-99.99,,,0.00,442.799988,,2013-09-20 00:52:00,
2013-09-19 18:00:00,67.0,54.0,-100.00,NW,316,1.0,3.0,62,-99.99,,,0.00,250.110001,,2013-09-20 01:00:00,
2013-09-19 18:42:00,67.0,54.0,-100.00,NW,316,1.0,3.0,62,-99.99,,,0.00,250.110001,,2013-09-20 01:42:00,
2013-09-19 18:52:00,67.0,54.0,-100.00,NW,316,1.0,3.0,62,-99.99,,,0.00,250.110001,,2013-09-20 01:52:00,
2013-09-19 19:00:00,64.0,55.0,-100.00,WNW,282,0.0,1.0,72,-99.99,,,0.00,54.970001,,2013-09-20 02:00:00,
2013-09-19 19:42:00,64.0,55.0,-100.00,WNW,282,0.0,1.0,72,-99.99,,,0.00,54.970001,,2013-09-20 02:42:00,
2013-09-19 19:52:00,64.0,55.0,-100.00,WNW,282,0.0,1.0,72,-99.99,,,0.00,54.970001,,2013-09-20 02:52:00,
2013-09-19 20:00:00,55.0,51.0,-100.00,SSE,149,0.0,1.0,85,-99.99,,,0.00,0.000000,,2013-09-20 03:00:00,
2013-09-19 20:45:00,55.0,51.0,-100.00,SSE,149,0.0,1.0,85,-99.99,,,0.00,0.000000,,2013-09-20 03:45:00,
2013-09-19 20:56:00,55.0,51.0,-100.00,SSE,149,0.0,1.0,85,-99.99,,,0.00,0.000000,,2013-09-20 03:56:00,
2013-09-19 21:00:00,53.0,51.0,-100.00,West,268,0.0,1.0,94,-99.99,,,0.00,0.000000,,2013-09-20 04:00:00,
2013-09-19 21:44:00,53.0,51.0,-100.00,West,268,0.0,1.0,94,-99.99,,,0.00,0.000000,,2013-09-20 04:44:00,
2013-09-19 21:54:00,53.0,51.0,-100.00,West,268,0.0,1.0,94,-99.99,,,0.00,0.000000,,2013-09-20 04:54:00,
2013-09-19 22:00:00,50.0,50.0,-100.00,East,88,0.0,0.0,99,-99.99,,,0.00,0.000000,,2013-09-20 05:00:00,
2013-09-19 22:43:00,50.0,50.0,-100.00,East,88,0.0,0.0,99,-99.99,,,0.00,0.000000,,2013-09-20 05:43:00,
2013-09-19 22:53:00,50.0,50.0,-100.00,East,88,0.0,0.0,99,-99.99,,,0.00,0.000000,,2013-09-20 05:53:00,
2013-09-19 23:00:00,49.0,49.0,-100.00,SSE,147,0.0,2.0,100,-99.99,,,0.00,0.000000,,2013-09-20 06:00:00,
2013-09-19 23:42:00,49.0,49.0,-100.00,SSE,147,0.0,2.0,100,-99.99,,,0.00,0.000000,,2013-09-20 06:42:00,
2013-09-19 23:52:00,49.0,49.0,-100.00,SSE,147,0.0,2.0,100,-99.99,,,0.00,0.000000,,2013-09-20 06:52:00,